Location: Hartford
(41.7640°N, 72.6860°W)
Time: 13:15:47
(UTC-04:00)

Amateur Radio Satellites - All Passes

Search period start: 27 July 2016 12:45
Search period end: 28 July 2016 12:45
Location: Hartford, 41.7640°N, 72.6860°W

Satellite Date Start Highest point End Downlink Frequencies (MHz)
Time Altitude Azimuth
QB50P2 27 Jul 12:47:01 12:49:25 15° 269° (W) 12:51:50 145.880/145.840
POLYITAN 1 27 Jul 12:49:42 12:52:04 14° 269° (W) 12:54:26 437.675
Gurwin Techsat 1B 27 Jul 12:50:07 12:53:51 20° 62° (ENE) 12:57:36 435.225
DX 1 27 Jul 12:54:32 12:58:56 76° 104° (ESE) 13:03:17 434.975-435.025
AISAT 27 Jul 12:55:16 12:59:45 74° 284° (WNW) 13:04:11 437.250
TISAT 1 27 Jul 13:01:53 13:04:04 14° 91° (E) 13:06:14 437.305
Oscar 19 27 Jul 13:06:34 13:11:33 57° 72° (ENE) 13:16:36 437.125/150
UKube-1 27 Jul 13:07:58 13:12:19 84° 101° (E) 13:16:39 .
ESTCUBE 1 27 Jul 13:31:48 13:35:04 20° 295° (WNW) 13:38:20 437.505/2401.250
SPROUT 27 Jul 13:41:11 13:45:21 49° 287° (WNW) 13:49:31 437.525
AO-85 27 Jul 13:44:04 13:49:18 53° 118° (ESE) 13:54:20 145.980
VELOX 1 27 Jul 13:47:31 13:51:01 23° 294° (WNW) 13:54:30 145.980
CUBEBUG 1 27 Jul 13:48:34 13:51:42 19° 295° (WNW) 13:54:49 437.445
50 SAT 27 Jul 13:50:08 13:51:59 14° 295° (WNW) 13:53:49 437.505
AO-7 27 Jul 14:01:36 14:08:17 28° 54° (NE) 14:14:58 29.400- 29.500
AIST 1 27 Jul 14:15:06 14:19:00 36° 283° (WNW) 14:22:57
RS-15 27 Jul 14:21:38 14:33:05 41° 37° (NE) 14:44:28 29.354- 29.394
Gurwin Techsat 1B 27 Jul 14:28:07 14:33:21 57° 259° (W) 14:38:37 435.225
DX 1 27 Jul 14:33:06 14:34:29 11° 299° (WNW) 14:35:53 434.975-435.025
TISAT 1 27 Jul 14:35:52 14:40:01 52° 287° (WNW) 14:44:08 437.305
ITAMSAT 1 27 Jul 14:41:08 14:46:18 67° 73° (ENE) 14:51:30 435.822/435.867
SWISSCUBE 27 Jul 14:41:50 14:46:11 35° 97° (E) 14:50:31 437.505
UKube-1 27 Jul 14:47:21 14:47:41 10° 300° (WNW) 14:48:01 .
GONETS M04 27 Jul 14:47:49 14:55:36 39° 86° (E) 15:03:25
Oscar 19 27 Jul 14:47:57 14:51:15 17° 269° (W) 14:54:33 437.125/150
BEESAT 27 Jul 15:02:59 15:07:39 52° 100° (E) 15:12:16 436.000
SO-50 27 Jul 15:03:18 15:04:06 10° 31° (NNE) 15:04:54 436.795
CUSAT 1 27 Jul 15:08:50 15:11:46 56° 262° (W) 15:15:26 437.405
Cosmos 2499 27 Jul 15:17:21 15:25:36 45° 88° (E) 15:33:40 435.465 / 435.565
AO-85 27 Jul 15:25:35 15:30:03 27° 315° (NW) 15:34:20 145.980
ITUPSAT 1 27 Jul 15:26:12 15:31:01 87° 109° (ESE) 15:35:46 437.325
HORYU 2 27 Jul 15:31:03 15:32:21 11° 60° (ENE) 15:33:39 437.375
DANDE 27 Jul 15:34:23 15:36:59 73° 79° (ENE) 15:39:52 436.750
MOZHAYETS 4 27 Jul 15:42:35 15:45:36 17° 92° (E) 15:48:38
AO-7 27 Jul 15:51:58 16:00:19 74° 254° (WSW) 16:08:44 29.400- 29.500
SWISSCUBE 27 Jul 16:19:56 16:23:49 25° 294° (WNW) 16:27:42 437.505
ITAMSAT 1 27 Jul 16:23:14 16:26:14 15° 269° (W) 16:29:13 435.822/435.867
RS-15 27 Jul 16:34:24 16:46:44 75° 243° (WSW) 16:58:50 29.354- 29.394
SO-50 27 Jul 16:41:10 16:45:43 51° 52° (NE) 16:50:07 436.795
KKS-1 27 Jul 16:41:40 16:46:09 66° 102° (ESE) 16:50:36 437.445
BEESAT 27 Jul 16:41:49 16:45:01 18° 297° (WNW) 16:48:13 436.000
NOAA 15 27 Jul 16:43:14 16:46:27 17° 60° (ENE) 16:49:41 137.62
GONETS M04 27 Jul 16:43:58 16:52:13 47° 286° (WNW) 17:00:34
PHONESAT 2.4 27 Jul 17:00:16 17:02:48 23° 156° (SSE) 17:05:21 2401.200-2431.200
LilacSat-2 27 Jul 17:00:24 17:00:42 10° 63° (ENE) 17:01:00 437.200
NOAA 18 27 Jul 17:02:08 17:06:07 21° 61° (ENE) 17:10:05 137.9125
CUBESAT XI-V 27 Jul 17:03:02 17:05:41 15° 91° (E) 17:08:19 437.345
HORYU 2 27 Jul 17:03:44 17:08:13 81° 256° (WSW) 17:12:46 437.375
ITUPSAT 1 27 Jul 17:06:37 17:08:06 11° 301° (WNW) 17:09:35 437.325
GOMX 1 27 Jul 17:07:36 17:08:36 11° 60° (ENE) 17:09:37 467.674
Cosmos 2499 27 Jul 17:10:24 17:18:42 43° 287° (WNW) 17:26:51 435.465 / 435.565
MOZHAYETS 4 27 Jul 17:18:38 17:23:02 46° 288° (WNW) 17:27:21
STARS 27 Jul 17:19:27 17:23:56 84° 105° (ESE) 17:28:21 437.465
Cubesat XI-IV 27 Jul 17:38:19 17:43:15 38° 68° (ENE) 17:48:12 437.490
BRITE-PL 27 Jul 17:41:52 17:45:54 56° 74° (ENE) 17:50:01 437.365/2234.400
AO-7 27 Jul 17:50:39 17:54:24 13° 273° (W) 17:58:11 29.400- 29.500
CUTE-I 27 Jul 18:01:26 18:06:43 62° 72° (ENE) 18:12:02 437.470
KKS-1 27 Jul 18:20:01 18:22:09 13° 299° (WNW) 18:24:18 437.445
NOAA 15 27 Jul 18:20:27 18:25:40 68° 258° (WSW) 18:30:55 137.62
SO-50 27 Jul 18:22:39 18:25:46 18° 250° (WSW) 18:28:49 436.795
LilacSat-2 27 Jul 18:30:35 18:34:27 67° 260° (W) 18:38:20 437.200
DOVE 4 27 Jul 18:32:53 18:36:53 39° 70° (ENE) 18:41:06 437.250
PHONESAT 2.4 27 Jul 18:35:59 18:39:02 62° 172° (S) 18:42:05 2401.200-2431.200
CUBESAT XI-V 27 Jul 18:38:53 18:43:23 54° 287° (WNW) 18:47:53 437.345
NOAA 18 27 Jul 18:40:50 18:46:16 60° 258° (WSW) 18:51:47 137.9125
GOMX 1 27 Jul 18:41:52 18:46:01 72° 258° (WSW) 18:50:22 467.674
CINEMA 3 27 Jul 18:42:52 18:45:44 17° 62° (ENE) 18:48:39 145.822/145.860
RS-15 27 Jul 18:49:46 18:57:01 18° 264° (W) 19:04:13 29.354- 29.394
BEESAT 3 27 Jul 18:53:07 18:57:01 80° 303° (WNW) 19:00:59 437.485
YUBILEINY 27 Jul 18:54:54 18:58:46 13° 56° (NE) 19:02:37 435.215
HO-68 27 Jul 18:54:59 19:01:19 35° 62° (ENE) 19:07:39 435.675
STARS 27 Jul 18:58:43 18:59:35 10° 300° (WNW) 19:00:27 437.465
BEESAT 2 27 Jul 19:00:04 19:03:58 64° 120° (ESE) 19:07:55 435.950
SEEDS 27 Jul 19:09:19 19:11:54 16° 65° (ENE) 19:14:28 437.485
PCSat 27 Jul 19:11:44 19:16:59 53° 114° (ESE) 19:22:15 145.827
Cubesat XI-IV 27 Jul 19:18:48 19:23:22 28° 265° (W) 19:27:59 437.490
COMPASS 1 27 Jul 19:20:32 19:22:51 15° 64° (ENE) 19:25:12 437.405
BRITE-PL 27 Jul 19:23:39 19:24:50 11° 270° (W) 19:26:02 437.365/2234.400
CUTE-I 27 Jul 19:43:43 19:47:10 17° 269° (W) 19:50:39 437.470
CUBEBUG 2 27 Jul 19:46:08 19:49:42 23° 66° (ENE) 19:53:21 437.445
AAUSAT CUBESAT 2 27 Jul 19:47:21 19:50:35 22° 68° (ENE) 19:53:49 437.432
CANX-2 27 Jul 19:51:17 19:55:33 73° 76° (ENE) 19:59:50 2200.000
Oscar 11 27 Jul 20:04:32 20:07:04 15° 64° (ENE) 20:09:36 145.826/435.025
CUTE 1.7 + AOD 2 27 Jul 20:04:36 20:08:54 89° 58° (ENE) 20:13:11 437.475
DOVE 4 27 Jul 20:11:48 20:14:48 18° 269° (W) 20:17:56 437.250
PHONESAT 2.4 27 Jul 20:12:23 20:15:27 60° 189° (S) 20:18:29 2401.200-2431.200
CINEMA 3 27 Jul 20:17:55 20:22:20 55° 260° (W) 20:27:00 145.822/145.860
Cosmos 2491 27 Jul 20:18:42 20:24:38 21° 79° (ENE) 20:30:33 435.465 / 435.565
STRAND 1 27 Jul 20:18:46 20:23:54 88° 103° (ESE) 20:29:00 437.568
Cosmos 2504 27 Jul 20:20:38 20:24:33 14° 57° (ENE) 20:28:20 435.465 / 435.565
O/OREOS (USA 219) 27 Jul 20:32:58 20:37:20 56° 108° (ESE) 20:41:43 437.305
BEESAT 3 27 Jul 20:34:15 20:35:22 11° 322° (NW) 20:36:29 437.485
ISS 27 Jul 20:38:29 20:41:07 23° 134° (SE) 20:43:45 145.825
BEESAT 2 27 Jul 20:39:48 20:42:13 15° 318° (NW) 20:44:38 435.950
HO-68 27 Jul 20:41:55 20:48:47 48° 260° (W) 20:55:44 435.675
SEEDS 27 Jul 20:43:08 20:47:13 46° 261° (W) 20:51:18 437.485
YUBILEINY 27 Jul 20:48:45 20:57:35 66° 79° (E) 21:06:17 435.215
COMPASS 1 27 Jul 20:53:57 20:58:00 50° 261° (W) 21:02:05 437.405
PCSat 27 Jul 20:56:12 21:00:40 26° 313° (NW) 21:05:11 145.827
FUNcube-1 27 Jul 20:56:30 21:00:51 49° 73° (ENE) 21:05:17 145.935
ZACube-1 27 Jul 20:57:40 21:02:05 54° 73° (ENE) 21:06:35 437.345
UWE-3 27 Jul 20:58:06 21:02:41 83° 75° (ENE) 21:07:22 435.000/436.395/437.385
AIST 2 27 Jul 21:04:47 21:08:50 64° 120° (ESE) 21:12:56 435.215
M-CUBED/EXP-1 PRIME 27 Jul 21:11:19 21:14:48 35° 64° (ENE) 21:18:35 437.505
PRISM 27 Jul 21:20:07 21:24:08 52° 100° (E) 21:28:08 437.425
CUBEBUG 2 27 Jul 21:21:46 21:26:03 39° 263° (W) 21:30:28 437.445
AAUSAT CUBESAT 2 27 Jul 21:22:13 21:25:54 30° 264° (W) 21:29:35 437.432
AUBIESAT-1 27 Jul 21:36:38 21:40:23 57° 68° (ENE) 21:44:28 437.475
Oscar 11 27 Jul 21:38:31 21:42:45 52° 260° (W) 21:47:02 145.826/435.025
DELFI C3 27 Jul 21:39:46 21:43:43 69° 76° (ENE) 21:47:41 145.870
PHONESAT 2.4 27 Jul 21:49:11 21:51:39 22° 205° (SSW) 21:54:06 2401.200-2431.200
STRAND 1 27 Jul 22:00:15 22:02:20 12° 302° (WNW) 22:04:25 437.568
HUMSAT D 27 Jul 22:07:25 22:11:42 68° 74° (ENE) 22:15:59 437.325/437.525
Cosmos 2504 27 Jul 22:11:30 22:19:42 73° 80° (E) 22:27:15 435.465 / 435.565
Cosmos 2491 27 Jul 22:11:39 22:20:22 81° 279° (W) 22:29:08 435.465 / 435.565
ISS 27 Jul 22:14:15 22:17:23 43° 331° (NNW) 22:20:31 145.825
O/OREOS (USA 219) 27 Jul 22:14:17 22:17:06 16° 307° (NW) 22:19:57 437.305
AO-85 27 Jul 22:16:17 22:20:33 43° 51° (NE) 22:24:27 145.980
AISAT 27 Jul 22:20:11 22:21:09 11° 60° (ENE) 22:22:06 437.250
TIGRISAT 27 Jul 22:20:49 22:24:19 21° 93° (E) 22:27:45 435.000
FUNcube-1 27 Jul 22:34:29 22:37:22 16° 269° (W) 22:40:16 145.935
ZACube-1 27 Jul 22:36:04 22:38:41 15° 270° (W) 22:41:21 437.345
UNISAT 6 27 Jul 22:36:54 22:41:04 32° 96° (E) 22:45:09 437.425
AIST 2 27 Jul 22:45:06 22:47:44 16° 318° (NW) 22:50:24 435.215
YUBILEINY 27 Jul 22:46:38 22:53:38 27° 279° (W) 23:00:35 435.215
M-CUBED/EXP-1 PRIME 27 Jul 22:46:55 22:49:31 18° 263° (W) 22:52:16 437.505
50 SAT 27 Jul 22:53:39 22:56:18 19° 68° (ENE) 22:58:58 437.505
ESTCUBE 1 27 Jul 22:53:58 22:58:07 38° 70° (ENE) 23:02:17 437.505/2401.250
PRISM 27 Jul 22:56:55 22:59:00 14° 297° (WNW) 23:01:07 437.425
SPROUT 27 Jul 23:01:27 23:03:18 13° 62° (ENE) 23:05:11 437.525
CUBEBUG 1 27 Jul 23:07:45 23:11:40 35° 70° (ENE) 23:15:36 437.445
VELOX 1 27 Jul 23:08:15 23:12:08 32° 69° (ENE) 23:16:01 145.980
AUBIESAT-1 27 Jul 23:14:07 23:15:20 11° 267° (W) 23:16:33 437.475
ANTELSAT 27 Jul 23:15:02 23:19:43 83° 104° (ESE) 23:24:14 437.575/2403.000
NANOSAT C BR1 27 Jul 23:39:36 23:42:56 22° 94° (E) 23:46:14 145.865
DUCHIFAT 1 27 Jul 23:43:31 23:46:54 22° 94° (E) 23:50:15 145.980
HUMSAT D 27 Jul 23:46:48 23:47:45 11° 271° (W) 23:48:42 437.325/437.525
DX 1 27 Jul 23:50:01 23:54:17 66° 75° (ENE) 23:58:36 434.975-435.025
ISS 27 Jul 23:52:19 23:54:26 16° 351° (N) 23:56:35 145.825
AISAT 27 Jul 23:52:34 23:56:57 81° 257° (WSW) 00:01:22 437.250
TISAT 1 27 Jul 23:54:59 23:56:22 11° 61° (ENE) 23:57:46 437.305
JAS-2 27 Jul 23:55:08 23:57:17 12° 90° (E) 23:59:30 435.910
BUGSAT 1 27 Jul 23:56:19 23:58:30 14° 91° (E) 00:00:41 437.445
TIGRISAT 27 Jul 23:56:50 00:01:09 39° 290° (WNW) 00:05:21 435.000
AO-85 27 Jul 23:57:38 00:00:34 18° 251° (WSW) 00:03:22 145.980
QB50P1 28 Jul 00:01:52 00:05:56 40° 98° (E) 00:09:58 145.935-145.965
UKube-1 28 Jul 00:02:24 00:06:40 72° 75° (ENE) 00:10:59 .
Cosmos 2504 28 Jul 00:06:24 00:12:04 21° 281° (W) 00:17:28 435.465 / 435.565
POPSAT HIP 1 28 Jul 00:08:19 00:12:29 47° 99° (E) 00:16:37 437.405
Cosmos 2491 28 Jul 00:13:29 00:18:43 17° 300° (WNW) 00:24:00 435.465 / 435.565
UNISAT 6 28 Jul 00:13:49 00:17:38 26° 293° (WNW) 00:21:22 437.425
AIST 1 28 Jul 00:21:12 00:25:28 52° 79° (E) 00:29:44
50 SAT 28 Jul 00:26:37 00:29:47 27° 264° (W) 00:32:56 437.505
QB50P2 28 Jul 00:29:21 00:33:40 89° 106° (ESE) 00:37:57 145.880/145.840
ESTCUBE 1 28 Jul 00:31:43 00:35:03 20° 267° (W) 00:38:23 437.505/2401.250
POLYITAN 1 28 Jul 00:32:00 00:36:20 90° 259° (W) 00:40:36 437.675
SPROUT 28 Jul 00:34:28 00:38:42 64° 259° (W) 00:42:59 437.525
CUBEBUG 1 28 Jul 00:44:47 00:48:01 21° 266° (W) 00:51:17 437.445
VELOX 1 28 Jul 00:45:05 00:48:36 24° 265° (W) 00:52:10 145.980
ANTELSAT 28 Jul 00:54:14 00:55:41 11° 300° (WNW) 00:57:07 437.575/2403.000
GONETS M04 28 Jul 00:57:51 01:03:52 20° 62° (ENE) 01:09:51
ITUPSAT 1 28 Jul 00:58:31 01:00:35 13° 60° (ENE) 01:02:38 437.325
Cosmos 2499 28 Jul 01:10:53 01:14:37 14° 57° (ENE) 01:18:14 435.465 / 435.565
NANOSAT C BR1 28 Jul 01:14:53 01:18:43 32° 290° (WNW) 01:22:30 145.865
Oscar 19 28 Jul 01:18:38 01:22:22 20° 93° (E) 01:26:04 437.125/150
DUCHIFAT 1 28 Jul 01:18:50 01:22:37 31° 291° (WNW) 01:26:23 145.980
TISAT 1 28 Jul 01:27:16 01:31:26 69° 259° (WSW) 01:35:39 437.305
ISS 28 Jul 01:29:37 01:31:50 17° 11° (N) 01:34:02 145.825
DX 1 28 Jul 01:29:46 01:30:55 11° 270° (W) 01:32:05 434.975-435.025
BUGSAT 1 28 Jul 01:30:01 01:34:10 52° 287° (WNW) 01:38:18 437.445
JAS-2 28 Jul 01:37:35 01:42:54 80° 286° (WNW) 01:48:41 435.910
QB50P1 28 Jul 01:38:25 01:41:25 19° 295° (WNW) 01:44:23 145.935-145.965
POPSAT HIP 1 28 Jul 01:45:11 01:47:53 16° 296° (WNW) 01:50:33 437.405
SWISSCUBE 28 Jul 01:48:21 01:52:51 42° 70° (ENE) 01:57:22 437.505
AIST 1 28 Jul 02:00:32 02:02:34 13° 275° (W) 02:04:35
BEESAT 28 Jul 02:09:23 02:14:05 62° 73° (ENE) 02:18:50 436.000
ITUPSAT 1 28 Jul 02:32:56 02:37:45 79° 258° (WSW) 02:42:35 437.325
Gurwin Techsat 1B 28 Jul 02:43:56 02:49:11 56° 101° (E) 02:54:23 435.225
MOZHAYETS 4 28 Jul 02:44:53 02:48:03 18° 64° (ENE) 02:51:12
GONETS M04 28 Jul 02:53:06 03:01:58 89° 82° (E) 03:10:51
ITAMSAT 1 28 Jul 02:54:27 02:58:30 23° 94° (E) 03:02:30 435.822/435.867
Oscar 19 28 Jul 02:56:57 03:01:57 51° 289° (WNW) 03:06:57 437.125/150
Cosmos 2499 28 Jul 03:01:30 03:09:23 76° 81° (E) 03:16:39 435.465 / 435.565
ISS 28 Jul 03:05:39 03:08:50 50° 30° (NNE) 03:12:01 145.825
BEESAT 3 28 Jul 03:10:03 03:14:00 62° 55° (NE) 03:17:54 437.485
BEESAT 2 28 Jul 03:17:51 03:21:40 41° 52° (NE) 03:25:28 435.950
JAS-2 28 Jul 03:26:05 03:27:16 11° 302° (WNW) 03:28:27 435.910
SWISSCUBE 28 Jul 03:27:12 03:30:48 21° 266° (W) 03:34:24 437.505
KKS-1 28 Jul 03:39:41 03:44:03 62° 74° (ENE) 03:48:28 437.445
BEESAT 28 Jul 03:49:44 03:52:16 14° 269° (W) 03:54:49 436.000
AO-7 28 Jul 03:53:37 04:01:15 38° 98° (E) 04:08:47 29.400- 29.500
PCSat 28 Jul 03:59:16 04:04:30 45° 54° (NE) 04:09:40 145.827
CUBESAT XI-V 28 Jul 04:06:55 04:09:43 16° 64° (ENE) 04:12:33 437.345
CUSAT 1 28 Jul 04:12:46 04:16:45 51° 280° (W) 04:19:53 437.405
STARS 28 Jul 04:15:59 04:20:21 76° 76° (ENE) 04:24:47 437.465
MOZHAYETS 4 28 Jul 04:20:22 04:24:50 48° 261° (W) 04:29:20
Gurwin Techsat 1B 28 Jul 04:24:53 04:28:41 20° 298° (WNW) 04:32:29 435.225
ITAMSAT 1 28 Jul 04:33:13 04:38:09 45° 290° (WNW) 04:43:02 435.822/435.867
DANDE 28 Jul 04:42:02 04:47:40 80° 280° (W) 04:51:49 436.750
ISS 28 Jul 04:42:36 04:45:02 19° 227° (SW) 04:47:27 145.825
BEESAT 3 28 Jul 04:49:47 04:51:08 11° 251° (WSW) 04:52:29 437.485
RS-15 28 Jul 04:51:47 04:57:56 16° 95° (E) 05:04:12 29.354- 29.394
GONETS M04 28 Jul 04:52:04 04:57:31 18° 283° (WNW) 05:03:00
HORYU 2 28 Jul 04:55:22 04:58:30 18° 93° (E) 05:01:37 437.375
Cosmos 2499 28 Jul 04:56:21 05:01:25 19° 282° (WNW) 05:06:18 435.465 / 435.565
BEESAT 2 28 Jul 04:56:26 04:59:12 18° 249° (WSW) 05:01:58 435.950
O/OREOS (USA 219) 28 Jul 05:04:49 05:07:07 14° 52° (NE) 05:09:26 437.305
KKS-1 28 Jul 05:19:11 05:21:02 12° 270° (W) 05:22:53 437.445
AIST 2 28 Jul 05:25:51 05:29:53 45° 52° (NE) 05:33:53 435.215
CUBESAT XI-V 28 Jul 05:42:09 05:46:40 54° 260° (W) 05:51:12 437.345
PCSat 28 Jul 05:43:10 05:47:37 26° 252° (WSW) 05:52:02 145.827
BRITE-PL 28 Jul 05:45:40 05:49:17 20° 94° (E) 05:53:06 437.365/2234.400
AO-7 28 Jul 05:46:12 05:54:10 51° 297° (WNW) 06:02:04 29.400- 29.500
Cubesat XI-IV 28 Jul 05:56:41 05:59:29 14° 90° (E) 06:02:16 437.490
STRAND 1 28 Jul 05:58:03 06:01:19 17° 61° (ENE) 06:04:35 437.568
LilacSat-2 28 Jul 06:05:21 06:07:11 13° 91° (E) 06:08:59 437.200
CUTE-I 28 Jul 06:18:53 06:23:08 24° 94° (E) 06:27:22 437.470
HORYU 2 28 Jul 06:31:01 06:35:14 42° 289° (WNW) 06:39:25 437.375
DOVE 4 28 Jul 06:32:20 06:34:49 13° 89° (E) 06:37:20 437.250
NOAA 15 28 Jul 06:35:19 06:40:21 44° 99° (E) 06:45:22 137.62
GOMX 1 28 Jul 06:42:21 06:47:01 35° 96° (E) 06:51:53 467.674
O/OREOS (USA 219) 28 Jul 06:42:32 06:47:03 73° 250° (WSW) 06:51:35 437.305
RS-15 28 Jul 06:56:39 07:07:59 73° 117° (ESE) 07:19:59 29.354- 29.394
SO-50 28 Jul 06:57:01 07:00:01 16° 109° (ESE) 07:03:00 436.795
NOAA 18 28 Jul 07:02:32 07:08:01 57° 101° (ESE) 07:13:26 137.9125
AIST 2 28 Jul 07:05:11 07:08:02 18° 249° (WSW) 07:10:52 435.215
BRITE-PL 28 Jul 07:23:16 07:27:55 47° 287° (WNW) 07:32:54 437.365/2234.400
Cubesat XI-IV 28 Jul 07:34:45 07:40:06 73° 286° (WNW) 07:45:24 437.490
STRAND 1 28 Jul 07:34:51 07:39:57 64° 258° (WSW) 07:45:06 437.568
LilacSat-2 28 Jul 07:38:01 07:41:43 44° 287° (WNW) 07:45:23 437.200
CANX-2 28 Jul 07:38:03 07:39:45 12° 90° (E) 07:41:27 2200.000
AO-7 28 Jul 07:42:10 07:44:58 12° 318° (NW) 07:47:45 29.400- 29.500
CUTE 1.7 + AOD 2 28 Jul 07:50:39 07:53:04 15° 91° (E) 07:55:28 437.475
CUTE-I 28 Jul 07:58:18 08:03:22 44° 291° (WNW) 08:08:23 437.470
YUBILEINY 28 Jul 07:59:08 08:02:59 14° 74° (ENE) 08:06:50 435.215
DOVE 4 28 Jul 08:07:48 08:12:59 77° 284° (WNW) 08:18:16 437.250
HO-68 28 Jul 08:09:15 08:15:41 34° 96° (E) 08:22:02 435.675
PRISM 28 Jul 08:09:44 08:13:30 38° 71° (ENE) 08:17:18 437.425
CINEMA 3 28 Jul 08:12:11 08:16:52 37° 96° (E) 08:21:27 145.822/145.860
NOAA 15 28 Jul 08:15:40 08:19:51 25° 296° (WNW) 08:24:03 137.62
GOMX 1 28 Jul 08:20:36 08:24:59 30° 291° (WNW) 08:29:34 467.674
Cosmos 2491 28 Jul 08:21:43 08:30:14 52° 76° (ENE) 08:38:44 435.465 / 435.565
SEEDS 28 Jul 08:26:58 08:30:31 26° 95° (E) 08:34:02 437.485
SO-50 28 Jul 08:35:09 08:40:00 65° 306° (NW) 08:44:49 436.795
COMPASS 1 28 Jul 08:36:52 08:40:14 24° 95° (E) 08:43:34 437.405
NOAA 18 28 Jul 08:44:09 08:48:14 21° 299° (WNW) 08:52:17 137.9125
UWE-3 28 Jul 08:48:48 08:51:50 17° 91° (E) 08:54:49 435.000/436.395/437.385
ZACube-1 28 Jul 08:49:08 08:49:37 10° 88° (E) 08:50:07 437.345
Cosmos 2504 28 Jul 09:02:48 09:05:09 11° 72° (ENE) 09:07:30 435.465 / 435.565
AAUSAT CUBESAT 2 28 Jul 09:03:44 09:07:35 37° 98° (E) 09:11:23 437.432
RS-15 28 Jul 09:10:40 09:21:29 41° 323° (NW) 09:32:52 29.354- 29.394
CANX-2 28 Jul 09:11:50 09:15:58 56° 286° (WNW) 09:20:04 2200.000
CUBEBUG 2 28 Jul 09:12:09 09:16:42 45° 98° (E) 09:21:05 437.445
Cubesat XI-IV 28 Jul 09:18:24 09:19:12 10° 304° (NW) 09:19:59 437.490
TIGRISAT 28 Jul 09:19:44 09:23:09 21° 65° (ENE) 09:26:35 435.000
CUTE 1.7 + AOD 2 28 Jul 09:25:07 09:29:09 46° 288° (WNW) 09:33:09 437.475
Oscar 11 28 Jul 09:25:44 09:29:25 27° 95° (E) 09:33:03 145.826/435.025
UNISAT 6 28 Jul 09:35:43 09:39:46 31° 68° (ENE) 09:43:52 437.425
PRISM 28 Jul 09:46:19 09:48:58 17° 267° (W) 09:51:37 437.425
DOVE 4 28 Jul 09:48:40 09:49:49 11° 301° (WNW) 09:50:59 437.250
YUBILEINY 28 Jul 09:49:23 09:58:06 74° 94° (E) 10:06:56 435.215
CINEMA 3 28 Jul 09:49:37 09:53:47 27° 293° (WNW) 09:57:54 145.822/145.860
HUMSAT D 28 Jul 09:53:38 09:54:16 10° 89° (E) 09:54:53 437.325/437.525
HO-68 28 Jul 09:56:42 10:03:32 48° 294° (WNW) 10:10:19 435.675
SEEDS 28 Jul 10:02:42 10:06:07 25° 292° (WNW) 10:09:33 437.485
COMPASS 1 28 Jul 10:12:14 10:15:45 28° 291° (WNW) 10:19:16 437.405
ANTELSAT 28 Jul 10:13:27 10:18:04 74° 75° (ENE) 10:22:47 437.575/2403.000
Cosmos 2491 28 Jul 10:19:07 10:26:42 35° 276° (W) 10:34:19 435.465 / 435.565
SO-50 28 Jul 10:19:13 10:21:25 13° 325° (NW) 10:23:36 436.795
FUNcube-1 28 Jul 10:20:21 10:24:51 82° 284° (WNW) 10:29:13 145.935
ZACube-1 28 Jul 10:21:57 10:26:27 74° 284° (WNW) 10:30:49 437.345
M-CUBED/EXP-1 PRIME 28 Jul 10:24:05 10:28:15 30° 101° (E) 10:32:22 437.505
UWE-3 28 Jul 10:24:07 10:28:33 46° 288° (WNW) 10:32:51 435.000/436.395/437.385
NANOSAT C BR1 28 Jul 10:32:29 10:35:20 18° 65° (ENE) 10:38:11 145.865
DUCHIFAT 1 28 Jul 10:36:08 10:39:01 18° 65° (ENE) 10:41:55 145.980
AAUSAT CUBESAT 2 28 Jul 10:39:58 10:42:47 18° 294° (WNW) 10:45:35 437.432
Cosmos 2504 28 Jul 10:48:01 10:56:43 63° 92° (E) 11:05:22 435.465 / 435.565
BUGSAT 1 28 Jul 10:48:11 10:48:52 10° 61° (ENE) 10:49:32 437.445
AUBIESAT-1 28 Jul 10:48:58 10:53:27 45° 104° (ESE) 10:57:50 437.475
CUBEBUG 2 28 Jul 10:49:33 10:52:57 20° 295° (WNW) 10:56:16 437.445
DELFI C3 28 Jul 10:51:45 10:55:41 72° 284° (WNW) 10:59:36 145.870
QB50P1 28 Jul 10:54:32 10:58:17 31° 70° (ENE) 11:02:05 145.935-145.965
TIGRISAT 28 Jul 10:55:06 10:59:30 43° 262° (W) 11:04:00 435.000
POPSAT HIP 1 28 Jul 11:00:56 11:04:50 36° 70° (ENE) 11:08:45 437.405
Oscar 11 28 Jul 11:01:50 11:05:28 27° 292° (WNW) 11:09:05 145.826/435.025
UNISAT 6 28 Jul 11:12:28 11:16:26 28° 265° (W) 11:20:28 437.425
QB50P2 28 Jul 11:21:48 11:26:02 67° 74° (ENE) 11:30:18 145.880/145.840
POLYITAN 1 28 Jul 11:24:26 11:28:40 69° 75° (ENE) 11:32:57 437.675
HUMSAT D 28 Jul 11:26:11 11:30:21 65° 285° (WNW) 11:34:26 437.325/437.525
RS-15 28 Jul 11:29:30 11:38:40 24° 357° (N) 11:48:01 29.354- 29.394
DX 1 28 Jul 11:40:19 11:41:34 11° 90° (E) 11:42:50 434.975-435.025
AISAT 28 Jul 11:43:17 11:46:26 19° 93° (E) 11:49:35 437.250
YUBILEINY 28 Jul 11:48:55 11:55:48 25° 295° (WNW) 12:02:46 435.215
JAS-2 28 Jul 11:50:20 11:55:55 44° 70° (ENE) 12:01:02 435.910
UKube-1 28 Jul 11:51:27 11:52:55 11° 90° (E) 11:54:22 .
ANTELSAT 28 Jul 11:53:48 11:55:18 11° 272° (W) 11:56:48 437.575/2403.000
50 SAT 28 Jul 11:54:56 11:57:45 21° 95° (E) 12:00:32 437.505
M-CUBED/EXP-1 PRIME 28 Jul 11:58:31 12:02:39 31° 297° (WNW) 12:06:47 437.505
NANOSAT C BR1 28 Jul 12:06:43 12:10:44 42° 261° (W) 12:14:48 145.865
DUCHIFAT 1 28 Jul 12:10:24 12:14:24 41° 262° (W) 12:18:26 145.980
BUGSAT 1 28 Jul 12:19:31 12:23:36 74° 259° (W) 12:27:46 437.445
SPROUT 28 Jul 12:20:45 12:24:04 21° 94° (E) 12:27:21 437.525
ESTCUBE 1 28 Jul 12:22:21 12:26:52 82° 104° (ESE) 12:31:20 437.505/2401.250
AUBIESAT-1 28 Jul 12:24:02 12:27:34 22° 300° (WNW) 12:31:05 437.475
Gurwin Techsat 1B 28 Jul 12:29:08 12:31:24 13° 58° (ENE) 12:33:40 435.225
QB50P1 28 Jul 12:30:44 12:34:06 22° 266° (W) 12:37:28 145.935-145.965
AO-85 28 Jul 12:31:29 12:34:51 17° 109° (ESE) 12:38:10 145.980
CUBEBUG 1 28 Jul 12:31:33 12:35:57 69° 102° (ESE) 12:40:22 437.445
VELOX 1 28 Jul 12:33:40 12:38:06 61° 101° (ESE) 12:42:30 145.980
Oscar 19 28 Jul 12:35:34 12:39:58 30° 66° (ENE) 12:44:22 437.125/150
POPSAT HIP 1 28 Jul 12:37:37 12:40:43 20° 267° (W) 12:43:50 437.405
